Spokane, WA

11:48 AM PST on January 23, 2017 (GMT -0800)
Felts

Weather History for KSFF - May, 2013

Change the Weather History Date:

Friday, May 10, 2013

  Actual Average Record
Temperature  
Mean Temperature 70 °F 53 °F  
Max Temperature 89 °F 67 °F 89 °F (2013)
Min Temperature 50 °F 40 °F 28 °F (1999)
Degree Days  
Heating Degree Days 0 12  
Month to date heating degree days 49 131  
Since 1 July heating degree days 5361 5986  
Cooling Degree Days 5 0  
Month to date cooling degree days 14 0  
Year to date cooling degree days 14 0  
Growing Degree Days 19 (Base 50)    
Moisture  
Dew Point 40 °F    
Average Humidity 42    
Maximum Humidity 71    
Minimum Humidity 13    
Precipitation  
Precipitation 0.00 in 0.05 in 0.25 in (2005)
Month to date precipitation T 0.47  
Year to date precipitation 4.37 6.61  
Sea Level Pressure  
Sea Level Pressure 30.10 in    
Wind  
Wind Speed 4 mph (NE)    
Max Wind Speed 17 mph    
Max Gust Speed 21 mph    
Visibility 10 miles    
Events      
T = Trace of Precipitation, MM = Missing Value Source: NWS Daily Summary

Daily Weather History Graph

Daily Weather History Graph

Search for Another Location

Airport or City:

Trip Planner

Search our weather history database for the weather conditions in past years. The results will help you decide how hot, cold, wet, or windy it might be!

Date:

Astronomy

May. 10, 2013 Rise Set
Actual Time 5:17 AM PDT 8:14 PM PDT
Civil Twilight 4:41 AM PDT 8:50 PM PDT
Nautical Twilight 3:55 AM PDT 9:36 PM PDT
Astronomical Twilight 3:00 AM PDT 10:33 PM PDT
Moon 5:44 AM PDT (5/10) 9:09 PM PDT (5/10)
Length of Visible Light 16h 08m
Length of Day
14h 56m
New Moon, 1% of the Moon is Illuminated
May 10
New Moon
May 17
First Quarter
May 24
Full
May 31
Last Quarter
Jun 8
New

Hourly Weather History & Observations

Time (PDT) Temp. Dew Point Humidity Pressure Visibility Wind Dir Wind Speed Gust Speed Precip Events Conditions
12:53 AM 57.0 °F 42.1 °F 57% 30.06 in 10.0 mi NE 4.6 mph - N/A   Clear
1:53 AM 55.9 °F 42.1 °F 60% 30.07 in 10.0 mi East 4.6 mph - N/A   Clear
2:53 AM 54.0 °F 43.0 °F 66% 30.08 in 10.0 mi ENE 4.6 mph - N/A   Clear
3:53 AM 55.0 °F 43.0 °F 64% 30.09 in 10.0 mi NE 4.6 mph - N/A   Clear
4:53 AM 53.6 °F 44.6 °F 72% 30.14 in 10.0 mi NE 3.5 mph - N/A   Clear
5:53 AM 51.8 °F 42.8 °F 71% 30.15 in 10.0 mi Calm Calm - N/A   Clear
6:53 AM 57.9 °F 45.0 °F 62% 30.14 in 10.0 mi Calm Calm - N/A   Clear
7:53 AM 62.1 °F 44.1 °F 52% 30.14 in 10.0 mi NNE 3.5 mph - N/A   Clear
8:53 AM 69.1 °F 42.1 °F 38% 30.15 in 10.0 mi East 9.2 mph - N/A   Clear
9:53 AM 73.9 °F 39.9 °F 29% 30.14 in 10.0 mi SE 8.1 mph - N/A   Clear
10:53 AM 75.9 °F 42.1 °F 30% 30.14 in 10.0 mi Variable 4.6 mph - N/A   Clear
11:53 AM 79.0 °F 44.1 °F 29% 30.14 in 10.0 mi Calm Calm - N/A   Clear
12:53 PM 82.0 °F 43.0 °F 25% 30.13 in 10.0 mi Variable 3.5 mph - N/A   Clear
1:53 PM 84.9 °F 45.0 °F 25% 30.11 in 10.0 mi Calm Calm - N/A   Partly Cloudy
2:53 PM 86.0 °F 39.0 °F 19% 30.09 in 10.0 mi Calm Calm - N/A   Partly Cloudy
3:53 PM 86.0 °F 34.0 °F 16% 30.08 in 10.0 mi Variable 5.8 mph - N/A   Clear
4:53 PM 87.1 °F 32.0 °F 14% 30.06 in 10.0 mi WSW 11.5 mph - N/A   Scattered Clouds
5:53 PM 87.1 °F 30.0 °F 13% 30.05 in 10.0 mi WSW 12.7 mph 17.3 mph N/A   Scattered Clouds
6:53 PM 84.9 °F 32.0 °F 15% 30.04 in 10.0 mi West 9.2 mph - N/A   Scattered Clouds
7:53 PM 80.1 °F 33.1 °F 18% 30.06 in 10.0 mi Calm Calm - N/A   Scattered Clouds
8:53 PM 70.0 °F 37.9 °F 31% 30.07 in 10.0 mi Calm Calm - N/A   Clear
9:53 PM 64.9 °F 41.0 °F 42% 30.07 in 10.0 mi NE 5.8 mph - N/A   Clear
10:53 PM 62.1 °F 43.0 °F 50% 30.08 in 10.0 mi NNE 3.5 mph - N/A   Clear
11:53 PM 60.1 °F 44.1 °F 55% 30.09 in 10.0 mi NE 4.6 mph - N/A   Clear